Regional Weather Roundup
Issued by NWS Cleveland, OH

Home | Current Version | Previous Version | Graphics & Text | Print | Product List | Glossary On
Versions: 1 2 3 4 5 6 7 8 9 10 11 12 13 14 15 16 17 18 19 20 21 22 23 24 25 26 27 28 29 30 31 32 33 34 35 36 37 38 39 40 41 42 43 44 45 46 47 48 49 50
000
ASUS41 KCLE 291300
RWRCLE
OHIO REGIONAL WEATHER ROUNDUP
NATIONAL WEATHER SERVICE WILMINGTON, OH
900 AM EDT SUN MAR 29 2015

NOTE: "FAIR" INDICATES FEW OR NO CLOUDS BELOW 12,000 FEET WITH NO
SIGNIFICANT WEATHER AND/OR OBSTRUCTIONS TO VISIBILITY.

OHZ001>008-015>018-024>027-034-035-043-044-291400-
   NORTHWEST OHIO

CITY           SKY/WX    TMP DP  RH WIND       PRES   REMARKS
DEFIANCE       SUNNY     28  18  66 S10       30.28F WCI  19
FINDLAY        SUNNY     28  18  66 S14       30.30R WCI  17
TOLEDO EXPRESS SUNNY     27  15  61 S9        30.28F WCI  18
TOLEDO EXEC    SUNNY     28  17  63 S8        30.30S WCI  20
LIMA           SUNNY     28  17  63 S12       30.29S WCI  18
$$

OHZ009>014-019>023-028>033-038-089-291400-
   NORTHEAST OHIO

CITY           SKY/WX    TMP DP  RH WIND       PRES   REMARKS
CLE-HOPKINS    MOSUNNY   26  15  63 SW10      30.34S WCI  16
CLE-LAKEFRONT  SUNNY     27  15  61 S9        30.32S WCI  18
CUY CO. ARPT   SUNNY     28  16  59 SW14      30.32R WCI  17
LORAIN-ELYRIA  SUNNY     26  17  68 SW9       30.31F WCI  17
ASHTABULA      SUNNY     24  16  71 S8        30.31S WCI  15
AKRON-CANTON   SUNNY     24  15  68 S7        30.32S WCI  16
WOOSTER        NOT AVBL
MANSFIELD      SUNNY     25  16  68 S13       30.29F WCI  14
YOUNGSTOWN     MOSUNNY   23  14  68 SW8       30.32R WCI  14
$$

OHZ042-051>053-060>062-070>072-077>081-291400-
  SOUTHWEST OHIO

CITY           SKY/WX    TMP DP  RH WIND       PRES   REMARKS
CINC-COVINGTON MOSUNNY   28  16  60 S14       30.34R WCI  17
CINC-LUNKEN    MOSUNNY   27  19  72 S8        30.38R WCI  19
HAMILTON       MOSUNNY   29  17  61 VRB6      30.36R WCI  23
DAYTON         NOT AVBL
WRIGHT-PAT AFB NOT AVBL
DAYTON GENERAL SUNNY     27  17  66 S10       30.32S WCI  17
WILMINGTON     SUNNY     26  16  65 S13       30.33F WCI  15
$$

OHZ036-037-039>041-045>050-054>059-063>069-073>076-082>088-291400-
  CENTRAL AND SOUTHEAST OHIO

CITY           SKY/WX    TMP DP  RH WIND       PRES   REMARKS
COLUMBUS       MOSUNNY   24  15  68 S6        30.37R WCI  17
OSU AIRPORT    SUNNY     25  14  63 S10       30.35S WCI  15
BOLTON FIELD   SUNNY     25  16  68 S10       30.36S WCI  15
RICKENBACK AFB NOT AVBL
NEWARK         SUNNY     24  18  77 S5        30.37R WCI  18
MARION         SUNNY     25  16  68 S10       30.33S WCI  15
LANCASTER      SUNNY     26  17  68 S3        30.39R
ZANESVILLE     SUNNY     22  14  71 S6        30.37S WCI  14
NEW PHILLY     SUNNY     23  16  74 SE3       30.38R
$$


USA.gov is the U.S. government's official web portal to all federal, state and local government web resources and services.